Location: Mohawk View
(42.7837°N, 73.7885°W)
Time: 06:17:00
(UTC+00:00)

NOSS 2-3 (D) - Pass Details

Date: 17 June 2021
Orbit: 559 x 1652 km, 63.4° (Epoch: 23 July)

Event Time Altitude Azimuth Distance (km) Brightness Sun altitude
Exits shadow 05:21:22 42° 97° (E) 858 4.2 -23.6°
Drops below altitude 10° 05:25:09 10° 47° (NE) 2,067 6.9 -23.5°
Sets 05:27:44 0° 41° (NE) 3,110 8.0 -23.4°
